South St. Paul, MN

8:54 PM CDT on April 21, 2018 (GMT -0500)
South Saint Paul Municipal-Fleming

Weather History for KSGS - September, 2013

Change the Weather History Date:

Monday, September 30, 2013

  Actual Average (KSTP) Record (KSTP)
Temperature  
Mean Temperature 70 °F -  
Max Temperature 81 °F 63 °F 84 °F (2002)
Min Temperature 59 °F 42 °F 33 °F (2003)
Cooling Degree Days 5    
Growing Degree Days 20 (Base 50)    
Moisture  
Dew Point 48 °F    
Average Humidity 48    
Maximum Humidity 63    
Minimum Humidity 32    
Precipitation  
Precipitation 0.00 in - - ()
Sea Level Pressure  
Sea Level Pressure 29.69 in    
Wind  
Wind Speed 10 mph (South)    
Max Wind Speed 21 mph    
Max Gust Speed 30 mph    
Visibility 10 miles    
Events      
Averages and records for this station are not official NWS values.
T = Trace of Precipitation, MM = Missing Value Source: NWS Daily Summary

Daily Weather History Graph

Daily Weather History Graph

Search for Another Location

Airport or City:

Astronomy

Sep. 30, 2013 Rise Set
Actual Time 7:09 AM CDT 6:53 PM CDT
Civil Twilight 6:40 AM CDT 7:23 PM CDT
Nautical Twilight 6:05 AM CDT 7:57 PM CDT
Astronomical Twilight 5:31 AM CDT 8:31 PM CDT
Moon 2:37 AM CDT (9/30) 4:33 PM CDT (9/30)
Length of Visible Light 12h 43m
Length of Day
11h 44m
Waning Crescent, 19% of the Moon is Illuminated
Sep 30
Waning Crescent
Oct 4
New
Oct 11
First Quarter
Oct 18
Full
Oct 26
Last Quarter

Hourly Weather History & Observations

Time (CDT) Temp. Dew Point Humidity Pressure Visibility Wind Dir Wind Speed Gust Speed Precip Events Conditions
12:12 AM 64.8 °F 45.0 °F 49% 29.81 in 10.0 mi South 8.1 mph 18.4 mph N/A   Clear
12:32 AM 64.6 °F 45.5 °F 50% 29.81 in 10.0 mi South 9.2 mph 18.4 mph N/A   Clear
12:52 AM 64.4 °F 45.5 °F 50% 29.81 in 10.0 mi South 8.1 mph - N/A   Clear
1:12 AM 63.5 °F 45.7 °F 52% 29.80 in 10.0 mi SSE 9.2 mph - N/A   Clear
1:32 AM 63.0 °F 46.0 °F 54% 29.80 in 10.0 mi South 5.8 mph - N/A   Clear
1:52 AM 62.2 °F 46.2 °F 56% 29.80 in 10.0 mi SSE 6.9 mph - N/A   Clear
2:12 AM 61.9 °F 46.4 °F 57% 29.80 in 10.0 mi South 8.1 mph - N/A   Clear
2:32 AM 61.7 °F 46.4 °F 57% 29.80 in 10.0 mi South 8.1 mph - N/A   Clear
2:52 AM 61.7 °F 46.0 °F 56% 29.79 in 10.0 mi SSE 9.2 mph - N/A   Clear
3:12 AM 61.7 °F 46.2 °F 57% 29.78 in 10.0 mi SSE 10.4 mph - N/A   Clear
3:32 AM 61.7 °F 46.4 °F 57% 29.77 in 10.0 mi South 9.2 mph - N/A   Clear
3:52 AM 61.5 °F 46.4 °F 58% 29.77 in 10.0 mi South 6.9 mph - N/A   Clear
4:12 AM 61.7 °F 46.4 °F 57% 29.76 in 10.0 mi South 8.1 mph - N/A   Clear
4:32 AM 61.3 °F 46.6 °F 58% 29.76 in 10.0 mi South 8.1 mph - N/A   Clear
4:52 AM 61.0 °F 46.6 °F 59% 29.75 in 10.0 mi SSE 9.2 mph - N/A   Clear
5:12 AM 61.0 °F 46.6 °F 59% 29.74 in 10.0 mi SSE 9.2 mph - N/A   Clear
5:32 AM 61.0 °F 46.6 °F 59% 29.74 in 10.0 mi South 9.2 mph - N/A   Clear
5:52 AM 60.8 °F 46.8 °F 60% 29.74 in 10.0 mi SSE 10.4 mph - N/A   Clear
6:12 AM 60.8 °F 47.1 °F 61% 29.73 in 10.0 mi South 8.1 mph 16.1 mph N/A   Clear
6:32 AM 60.3 °F 47.3 °F 62% 29.72 in 10.0 mi SSE 8.1 mph - N/A   Clear
6:52 AM 59.9 °F 47.3 °F 63% 29.72 in 10.0 mi South 6.9 mph - N/A   Clear
7:12 AM 60.3 °F 47.5 °F 63% 29.72 in 10.0 mi South 6.9 mph - N/A   Clear
7:32 AM 60.8 °F 47.5 °F 62% 29.72 in 10.0 mi South 11.5 mph 18.4 mph N/A   Clear
7:52 AM 61.0 °F 47.5 °F 61% 29.72 in 10.0 mi SSE 10.4 mph - N/A   Clear
8:12 AM 60.8 °F 48.0 °F 63% 29.72 in 10.0 mi South 8.1 mph - N/A   Clear
8:32 AM 61.9 °F 48.2 °F 61% 29.72 in 10.0 mi South 9.2 mph - N/A   Clear
8:52 AM 62.6 °F 48.6 °F 60% 29.72 in 10.0 mi SSW 5.8 mph - N/A   Clear
9:12 AM 63.7 °F 49.1 °F 59% 29.72 in 10.0 mi South 4.6 mph - N/A   Clear
9:32 AM 65.1 °F 49.1 °F 56% 29.71 in 10.0 mi South 6.9 mph - N/A   Clear
9:52 AM 67.1 °F 48.6 °F 51% 29.71 in 10.0 mi SSW 17.3 mph 21.9 mph N/A   Clear
10:12 AM 67.5 °F 48.7 °F 51% 29.70 in 10.0 mi South 16.1 mph 20.7 mph N/A   Clear
10:32 AM 68.4 °F 48.6 °F 49% 29.70 in 10.0 mi South 18.4 mph 28.8 mph N/A   Clear
10:52 AM 69.6 °F 49.5 °F 49% 29.69 in 10.0 mi South 15.0 mph 24.2 mph N/A   Clear
11:12 AM 71.4 °F 49.5 °F 46% 29.69 in 10.0 mi SSW 12.7 mph 23.0 mph N/A   Clear
11:32 AM 73.4 °F 50.0 °F 44% 29.69 in 10.0 mi South 10.4 mph 19.6 mph N/A   Clear
11:52 AM 73.8 °F 48.6 °F 41% 29.68 in 10.0 mi South 18.4 mph 25.3 mph N/A   Clear
12:12 PM 75.0 °F 48.6 °F 39% 29.67 in 10.0 mi SSW 20.7 mph - N/A   Clear
12:32 PM 75.7 °F 48.4 °F 38% 29.68 in 10.0 mi SSW 19.6 mph 26.5 mph N/A   Clear
12:52 PM 76.3 °F 49.1 °F 38% 29.67 in 10.0 mi SSW 15.0 mph 25.3 mph N/A   Clear
1:12 PM 76.1 °F 48.7 °F 38% 29.67 in 10.0 mi SSW 18.4 mph 25.3 mph N/A   Clear
1:32 PM 77.0 °F 48.2 °F 36% 29.66 in 10.0 mi SSW 20.7 mph 29.9 mph N/A   Clear
1:52 PM 77.4 °F 49.5 °F 37% 29.65 in 10.0 mi SSW 15.0 mph 23.0 mph N/A   Clear
2:12 PM 78.3 °F 48.7 °F 35% 29.65 in 10.0 mi South 15.0 mph 25.3 mph N/A   Clear
2:32 PM 79.0 °F 48.9 °F 35% 29.65 in 10.0 mi South 17.3 mph 23.0 mph N/A   Clear
2:52 PM 80.2 °F 48.9 °F 33% 29.64 in 10.0 mi South 19.6 mph 28.8 mph N/A   Clear
3:12 PM 80.6 °F 48.6 °F 33% 29.63 in 10.0 mi South 13.8 mph 24.2 mph N/A   Clear
3:32 PM 80.8 °F 48.4 °F 32% 29.63 in 10.0 mi South 15.0 mph 25.3 mph N/A   Clear
3:52 PM 80.8 °F 48.4 °F 32% 29.63 in 10.0 mi South 19.6 mph 25.3 mph N/A   Clear
4:12 PM 80.8 °F 48.2 °F 32% 29.63 in 10.0 mi South 16.1 mph 24.2 mph N/A   Clear
4:32 PM 81.1 °F 48.4 °F 32% 29.62 in 10.0 mi South 16.1 mph 26.5 mph N/A   Clear
4:52 PM 81.1 °F 48.7 °F 32% 29.62 in 10.0 mi South 12.7 mph 23.0 mph N/A   Clear
5:12 PM 80.8 °F 48.4 °F 32% 29.62 in 10.0 mi South 13.8 mph 23.0 mph N/A   Clear
5:32 PM 80.2 °F 48.9 °F 33% 29.62 in 10.0 mi South 12.7 mph 18.4 mph N/A   Clear
5:52 PM 79.5 °F 48.7 °F 34% 29.62 in 10.0 mi South 15.0 mph 20.7 mph N/A   Clear
6:12 PM 78.4 °F 50.0 °F 37% 29.63 in 10.0 mi South 8.1 mph - N/A   Clear
6:32 PM 77.4 °F 50.0 °F 38% 29.63 in 10.0 mi SSE 9.2 mph - N/A   Clear
6:52 PM 76.5 °F 49.5 °F 39% 29.64 in 10.0 mi South 10.4 mph - N/A   Clear
7:12 PM 75.2 °F 50.0 °F 41% 29.64 in 10.0 mi SSE 10.4 mph - N/A   Clear
7:32 PM 74.5 °F 50.0 °F 42% 29.64 in 10.0 mi SSE 8.1 mph - N/A   Clear
7:52 PM 72.9 °F 50.5 °F 45% 29.64 in 10.0 mi SSE 8.1 mph - N/A   Clear
8:12 PM 71.6 °F 50.4 °F 47% 29.64 in 10.0 mi SSE 9.2 mph - N/A   Clear
8:32 PM 71.2 °F 50.0 °F 47% 29.65 in 10.0 mi SSE 8.1 mph - N/A   Clear
8:52 PM 70.7 °F 49.6 °F 47% 29.65 in 10.0 mi SSE 8.1 mph - N/A   Clear
9:12 PM 70.3 °F 49.1 °F 47% 29.65 in 10.0 mi SSE 8.1 mph 17.3 mph N/A   Clear
9:32 PM 70.3 °F 48.6 °F 46% 29.66 in 10.0 mi South 8.1 mph - N/A   Clear
9:52 PM 70.2 °F 48.4 °F 46% 29.66 in 10.0 mi South 9.2 mph - N/A   Clear
10:12 PM 70.0 °F 48.2 °F 46% 29.66 in 10.0 mi South 8.1 mph - N/A   Clear
10:32 PM 70.0 °F 48.4 °F 46% 29.66 in 10.0 mi South 6.9 mph - N/A   Clear
10:52 PM 70.2 °F 48.4 °F 46% 29.65 in 10.0 mi South 8.1 mph - N/A   Clear
11:12 PM 70.7 °F 48.2 °F 45% 29.65 in 10.0 mi South 13.8 mph 17.3 mph N/A   Clear
11:32 PM 70.7 °F 48.2 °F 45% 29.65 in 10.0 mi South 12.7 mph - N/A   Clear
11:52 PM 70.2 °F 48.6 °F 46% 29.65 in 10.0 mi South 10.4 mph 17.3 mph N/A   Clear